Weather in Tashelan

Russia / Republic of Buryatia     51°41′02″N   108°53′48″E
temp.,
°C
wind,
m/s
gust,
m/s
humid.,
%
clouds,
%
prec.,
mm/h
press.,
hPa
HPBL,
m
5 december, sun
sun523:00−10sw2296100 0.0 102235
02:00−12wsw249851 0.0 102462
05:00−10wsw269995 0.0 1024131
08:00−10w259894 0.0 1026100
11:00−6w1694100 2.8 1025356
14:00−4wnw819641 3.9 10262179
17:00−8wnw613695 0.0 1029827
20:00−9w613795 0.0 1031625
6 december, mon
mon623:00−10wsw310805 0.0 1031247
02:00−16sse11965 0.0 103214
05:00−16sse119853 0.0 103112
08:00−17sse119839 0.0 102911
11:00−9sw12775 0.0 1027126
14:00−5wsw23660 0.0 1023259
17:00−12sw11935 0.0 10269
20:00−15s119615 0.0 102811
7 december, tue
tue723:00−16sse11965 0.0 102910
02:00−17ese11968 0.0 10299
05:00−17ese11965 0.0 10299
08:00−17ese11965 0.0 10299
11:00−9s017023 0.0 102786
14:00−4s016179 0.0 1023197
17:00−12e119099 0.0 102410
20:00−13e1194100 0.0 102410
8 december, wed
wed823:00−14e119496 0.0 102210
02:00−13ene0094100 0.0 102110
05:00−13w1196100 0.0 102110
08:00−12w1191100 0.0 102154
11:00−9wsw1278100 0.0 1021135
14:00−6w2376100 0.0 1021198
17:00−11w119799 0.0 102515
20:00−13w1199100 0.0 102812
9 december, thu
thu923:00−13wsw2310093 0.0 103073
02:00−16sw1110097 0.0 103226
05:00−18sw119994 0.0 103313
08:00−17ssw119797 0.0 103410
11:00−11w128278 0.0 1033121
14:00−9wnw137163 0.0 1032420
17:00−15wnw1195100 0.0 10379
20:00−16nw119195 0.0 104015